Regional Weather Roundup
Issued by NWS Mt. Holly, NJ

Home | Current Version | Previous Version | Text Only | Print | Product List | Glossary On
Versions: 1 2 3 4 5 6 7 8 9 10 11 12 13 14 15 16 17 18 19 20 21 22 23 24 25 26 27 28 29 30 31 32 33 34 35 36 37 38 39 40 41 42 43 44 45 46 47 48 49 50
000
ASUS41 KPHI 271511
RWRPHI

REGIONAL WEATHER ROUNDUP
NATIONAL WEATHER SERVICE MOUNT HOLLY NJ
1100 AM EDT FRI MAR 27 2015

NOTE:  "FAIR" INDICATES FEW OR NO CLOUDS BELOW 12,000 FEET WITH NO
SIGNIFICANT WEATHER AND/OR OBSTRUCTIONS TO VISIBILITY.

 * = STATION DOES NOT REPORT PRECIPITATION (E.G. RAIN, SNOW, ETC.)
        OR FOG.

NJZ015>026-271600-
SOUTHERN NEW JERSEY

CITY           SKY/WX    TMP DP  RH WIND       PRES   REMARKS
POMONA         CLOUDY    41  36  82 N14       29.77S
RIO GRANDE*    CLOUDY    41  36  81 N7G17     29.77F
MILLVILLE      CLOUDY    42  37  82 N12       29.77F
WRIGHTSTOWN    LGT RAIN  40  38  92 NW10      29.76R WCI  34
MOUNT HOLLY    LGT RAIN  40  35  83 N6        29.79R
TRENTON        CLOUDY    41  35  79 NW7       29.78R

$$
NJZ001>014-271600-
NORTHERN NEW JERSEY

CITY           SKY/WX    TMP DP  RH WIND       PRES   REMARKS
SUSSEX         CLOUDY    42  32  67 N6        29.77R
ANDOVER*         N/A     41  32  70 N8        29.76R
MORRISTOWN     CLOUDY    43  36  75 N8        29.78R
NEWARK         CLOUDY    43  36  75 N12       29.78R
TETERBORO      CLOUDY    42  35  76 N8        29.76R
CALDWELL       CLOUDY    42  33  70 VRB5      29.78R
SOMERVILLE     CLOUDY    43  34  70 VRB6      29.77R
ALLAIRE*       CLOUDY    41  34  75 NW10      29.76S
TOMS RIVER*    CLOUDY    41  37  87 N9        29.76F

$$
PAZ043-044-047-054-055-060>062-066>071-271600-
EASTERN PENNSYLVANIA

CITY           SKY/WX    TMP DP  RH WIND       PRES   REMARKS
PHILADELPHIA   CLOUDY    42  35  76 NW7       29.79F
NORTH PHILA    CLOUDY    42  35  76 NW6       29.80R
BLUE BELL      CLOUDY    41  36  81 CALM      29.77F
DOYLESTOWN     CLOUDY    40  36  86 N5        29.77R
QUAKERTOWN*    CLOUDY    39  32  75 N7        29.78F WCI  34
POTTSTOWN      CLOUDY    42  33  70 NW7       29.80S
LANCASTER      CLOUDY    42  30  62 N8        29.81R
COATESVILLE    CLOUDY    41  32  70 N8        29.79S
READING        CLOUDY    42  28  57 NW9       29.79F
ALLENTOWN      CLOUDY    42  31  64 N6        29.78R
MOUNT POCONO   CLOUDY    34  26  72 N8        29.72R WCI  27
HAZLETON       CLOUDY    36  27  69 NW10G16   29.78S WCI  28
WILKES BARRE   CLOUDY    39  28  64 NW13G20   29.78S WCI  31

$$
DEZALL-MDZ008-012-015-019-020-271600-
DELAWARE AND EASTERN MARYLAND

CITY           SKY/WX    TMP DP  RH WIND       PRES   REMARKS
WILMINGTON     CLOUDY    42  36  79 N3        29.80F
DOVER          CLOUDY    42  41  98 N16       29.79F
GEORGETOWN     LGT RAIN  41  37  86 N9        29.79R
EASTON         LGT RAIN  43  43 100 N6        29.84S
ABERDEEN       LGT RAIN  43  39  87 N5        29.81
PATUXENT       LGT RAIN  42  38  85 N13       29.80S
OCEAN CITY     CLOUDY    43  38  82 N13G18    29.76F
WALLOPS ISLAND CLOUDY    45  38  76 N10G20    29.76S
CAMBRIDGE      CLOUDY    43  39  87 N9        29.79S
SALISBURY      CLOUDY    43  38  82 N14G21    29.77S

$$
PAZ001-021-NYZ056-072-MDZ011-DCZ001-271600-
OTHER NEARBY LOCATIONS

CITY           SKY/WX    TMP DP  RH WIND       PRES   REMARKS
HARRISBURG     CLOUDY    43  30  60 N8        29.81R
STATE COLLEGE  CLOUDY    37  25  60 NW12      29.80S WCI  30
WILLIAMSPORT   CLOUDY    41  21  44 N12G17    29.80F
BINGHAMTON     CLOUDY    32  26  78 NW8       29.77S WCI  25
NEW YORK CITY  CLOUDY    41  35  79 VRB6      29.78R
BALTIMORE      LGT RAIN  43  36  76 N8        29.79F
WASHINGTON DC  LGT RAIN  46  37  71 N14       29.83S

$$



USA.gov is the U.S. government's official web portal to all federal, state and local government web resources and services.